Flag for Honduras Weather past 2 weeks in Tegucigalpa, Honduras

Now
68 °F

Passing clouds.


Feels Like: 68 °F
Forecast: 66 / 87 °F
Wind: No wind

Location: Tegucigalpa Airport

Current Time: Aug 1, 2014 at 2:07:16 AM

Latest Report: Aug 1, 2014 at 1:00 AM


Visibility: N/A

Pressure: 30.09 "Hg

Humidity: 88%

Dew point: 64 °F

Location of TegucigalpaLocation

Historic Weather in Tegucigalpa — Graph

°F

Tegucigalpa temperature yesterday

Maximum temperature yesterday: 88 °F (at 1:00 PM)
Minimum temperature yesterday: 66 °F (at 2:00 AM)
Average temperature yesterday: 76 °F

Past Weeks' High & Low Weather Summary

 TemperatureHumidityPressure
High88 °F (Jul 18, 3:00 PM)100% (Jul 22, 12:00 AM)30.18 "Hg (Jul 22, 12:00 AM)
Low64 °F (Jul 22, 5:00 AM)35% (Jul 24, 4:00 PM)29.89 "Hg (Jul 19, 8:00 AM)
Average75 °F69%30.11 "Hg
* Reported Jul 17 1:00 AM — Aug 1 1:00 AM, Tegucigalpa, Weather by CustomWeather, © 2014

Note: Actual official high and low records may vary slightly from our data, if they occured in-between our weather recording intervals... More about our weather records

Advertising

Tegucigalpa weather history for previous 24 hours

 ConditionsComfort  
Time TempWeatherWind HumidityBarometerVisibility
1:00 AM
Aug 1
68 °FPassing clouds.No wind88%30.09 "HgN/A
12:00 AM82 °FPassing clouds.No wind48%30.09 "HgN/A
11:00 PM
Jul 31
68 °FPassing clouds.3 mph73%30.12 "HgN/A
10:00 PM70 °FPassing clouds.5 mph69%30.12 "HgN/A
9:00 PM73 °FPassing clouds.5 mph65%30.12 "HgN/A
8:00 PM75 °FPassing clouds.7 mph54%30.07 "HgN/A
7:00 PM77 °FPassing clouds.7 mph51%30.07 "HgN/A
6:00 PM81 °FPassing clouds.9 mph84%30.07 "HgN/A
5:00 PM84 °FPassing clouds.9 mph40%30.04 "HgN/A
4:00 PM84 °FScattered clouds.9 mph40%30.04 "HgN/A
3:00 PM88 °FScattered clouds.9 mph35%30.04 "HgN/A
2:00 PM88 °FPassing clouds.14 mph35%30.07 "HgN/A
1:00 PM88 °FPassing clouds.12 mph35%30.07 "HgN/A
12:00 PM86 °FPassing clouds.7 mph38%30.09 "HgN/A
11:00 AM84 °FPassing clouds.9 mph45%30.09 "HgN/A
10:00 AM81 °FPassing clouds.12 mph51%30.09 "HgN/A
9:00 AM77 °FPassing clouds.12 mph65%30.12 "HgN/A
8:00 AM72 °FScattered clouds.5 mph78%30.12 "HgN/A
7:00 AM70 °FPassing clouds.7 mph73%30.12 "HgN/A
6:00 AM66 °FPassing clouds.3 mph88%30.12 "HgN/A
5:00 AM66 °FPassing clouds.5 mph88%30.09 "HgN/A
4:00 AM68 °FPassing clouds.2 mph83%30.09 "HgN/A
3:00 AM68 °FPassing clouds.No wind88%30.09 "HgN/A
2:00 AM66 °FPassing clouds.No wind83%30.12 "HgN/A
Weather by CustomWeather, © 2014

See weather overviewHow to use our weather pages